Chatham, MA

9:44 AM EST on January 22, 2018 (GMT -0500)
Chatham Municipal

Weather History for KCQX - October, 2014

Change the Weather History Date:

Thursday, October 16, 2014

  Actual Average Record
Temperature  
Mean Temperature 65 °F -  
Max Temperature 69 °F 58 °F 73 °F (1975)
Min Temperature 61 °F 44 °F 35 °F (1978)
Growing Degree Days 15 (Base 50)    
Moisture  
Dew Point 63 °F    
Average Humidity 98    
Maximum Humidity 100    
Minimum Humidity 87    
Precipitation  
Precipitation 0.77 in - - ()
Sea Level Pressure  
Sea Level Pressure 29.88 in    
Wind  
Wind Speed 10 mph (SSE)    
Max Wind Speed 16 mph    
Max Gust Speed 28 mph    
Visibility 6 miles    
Events Fog , Rain    
Averages and records for this station are not official NWS values.
T = Trace of Precipitation, MM = Missing Value Source: NWS Daily Summary

Daily Weather History Graph

Daily Weather History Graph

Search for Another Location

Airport or City:

Trip Planner

Search our weather history database for the weather conditions in past years. The results will help you decide how hot, cold, wet, or windy it might be!

Date:

Astronomy

Oct. 16, 2014 Rise Set
Actual Time 6:53 AM EDT 5:57 PM EDT
Civil Twilight 6:25 AM EDT 6:25 PM EDT
Nautical Twilight 5:52 AM EDT 6:57 PM EDT
Astronomical Twilight 5:20 AM EDT 7:29 PM EDT
Moon No Moon Rise 2:11 PM EDT (10/16)
Length of Visible Light 12h 00m
Length of Day
11h 03m
Last Quarter, 42% of the Moon is Illuminated
Oct 16
Last Quarter
Oct 23
New
Oct 30
First Quarter
Nov 6
Full
Nov 14
Last Quarter

Hourly Weather History & Observations

Time (EDT) Temp. Dew Point Humidity Pressure Visibility Wind Dir Wind Speed Gust Speed Precip Events Conditions
12:03 AM 64.9 °F 64.9 °F 100% 30.02 in 10.0 mi SSE 9.2 mph 17.3 mph N/A   Mostly Cloudy
12:18 AM 64.9 °F 64.0 °F 97% 30.02 in 10.0 mi SSE 9.2 mph 19.6 mph N/A   Overcast
12:52 AM 64.0 °F 63.0 °F 96% 30.01 in 7.0 mi SSE 8.1 mph 18.4 mph N/A   Overcast
1:21 AM 63.0 °F 63.0 °F 100% 30.00 in 2.0 mi SSE 8.1 mph 19.6 mph N/A   Overcast
1:28 AM 63.0 °F 63.0 °F 100% 30.00 in 1.8 mi SSE 10.4 mph 17.3 mph N/A   Overcast
1:36 AM 63.0 °F 63.0 °F 100% 30.00 in 2.0 mi SSE 8.1 mph 16.1 mph N/A   Overcast
1:45 AM 63.0 °F 62.1 °F 97% 30.00 in 1.0 mi SSE 10.4 mph 17.3 mph N/A   Overcast
1:52 AM 63.0 °F 62.1 °F 97% 30.00 in 0.8 mi SSE 9.2 mph 17.3 mph N/A   Mist
2:07 AM 63.0 °F 63.0 °F 100% 29.99 in 1.5 mi SSE 8.1 mph - N/A   Overcast
2:15 AM 63.0 °F 63.0 °F 100% 29.99 in 2.0 mi SSE 6.9 mph - N/A   Overcast
2:32 AM 62.1 °F 62.1 °F 100% 29.99 in 3.0 mi SSE 9.2 mph 17.3 mph N/A   Overcast
2:52 AM 62.1 °F 62.1 °F 100% 29.99 in 6.0 mi SSE 8.1 mph 18.4 mph N/A   Overcast
3:52 AM 63.0 °F 63.0 °F 100% 29.98 in 9.0 mi South 9.2 mph - N/A   Overcast
4:34 AM 63.0 °F 62.1 °F 97% 29.97 in 9.0 mi South 8.1 mph - N/A   Overcast
4:45 AM 63.0 °F 62.1 °F 97% 29.97 in 9.0 mi Variable 5.8 mph - N/A   Overcast
4:52 AM 63.0 °F 63.0 °F 100% 29.98 in 8.0 mi South 9.2 mph 16.1 mph N/A   Overcast
5:06 AM 63.0 °F 63.0 °F 100% 29.97 in 4.0 mi South 8.1 mph 18.4 mph 0.01 in Rain Rain
5:52 AM 64.0 °F 64.0 °F 100% 29.96 in 7.0 mi SSE 8.1 mph - 0.02 in   Overcast
5:59 AM 63.0 °F 63.0 °F 100% 29.96 in 6.0 mi SSE 8.1 mph - 0.00 in Rain Light Rain
6:52 AM 64.0 °F 64.0 °F 100% 29.96 in 8.0 mi SSE 6.9 mph - 0.02 in   Overcast
7:52 AM 63.0 °F 63.0 °F 100% 29.96 in 5.0 mi SE 8.1 mph - N/A   Overcast
8:50 AM 64.4 °F 64.4 °F 100% 29.95 in 9.0 mi SSE 12.7 mph 24.2 mph N/A   Overcast
8:52 AM 64.9 °F 64.9 °F 100% 29.96 in 9.0 mi SSE 12.7 mph 23.0 mph N/A   Overcast
9:52 AM 64.9 °F 64.0 °F 97% 29.95 in 9.0 mi SSE 12.7 mph 24.2 mph N/A   Overcast
10:15 AM 66.0 °F 64.9 °F 96% 29.94 in 10.0 mi SSE 11.5 mph 23.0 mph N/A   Overcast
10:33 AM 66.0 °F 64.9 °F 96% 29.93 in 10.0 mi SSE 12.7 mph 21.9 mph N/A   Overcast
10:52 AM 66.9 °F 64.9 °F 93% 29.94 in 10.0 mi SSE 15.0 mph 27.6 mph N/A   Overcast
11:52 AM 66.9 °F 64.0 °F 90% 29.92 in 10.0 mi SSE 11.5 mph 23.0 mph N/A   Overcast
12:52 PM 69.1 °F 64.9 °F 87% 29.88 in 10.0 mi SSE 12.7 mph 26.5 mph N/A   Overcast
1:15 PM 66.0 °F 63.0 °F 90% 29.87 in 10.0 mi SSE 11.5 mph 24.2 mph N/A   Mostly Cloudy
1:22 PM 66.0 °F 63.0 °F 90% 29.87 in 10.0 mi SSE 11.5 mph 23.0 mph N/A   Mostly Cloudy
1:52 PM 66.0 °F 63.0 °F 90% 29.86 in 10.0 mi SSE 12.7 mph 23.0 mph N/A   Mostly Cloudy
2:13 PM 64.0 °F 62.1 °F 93% 29.85 in 10.0 mi SE 12.7 mph 23.0 mph N/A   Overcast
2:37 PM 64.0 °F 62.1 °F 93% 29.85 in 10.0 mi SE 11.5 mph 21.9 mph N/A   Overcast
2:52 PM 64.9 °F 63.0 °F 93% 29.84 in 10.0 mi SE 11.5 mph 19.6 mph N/A   Overcast
3:30 PM 64.0 °F 62.1 °F 93% 29.82 in 7.0 mi SE 12.7 mph 21.9 mph 0.01 in Rain Light Rain
3:42 PM 63.0 °F 62.1 °F 97% 29.82 in 9.0 mi SE 15.0 mph 23.0 mph 0.01 in   Overcast
3:52 PM 63.0 °F 62.1 °F 97% 29.82 in 9.0 mi SE 15.0 mph 24.2 mph 0.01 in   Overcast
4:16 PM 64.0 °F 63.0 °F 96% 29.81 in 5.0 mi SE 11.5 mph 23.0 mph 0.01 in Rain Light Rain
4:52 PM 64.9 °F 64.0 °F 97% 29.81 in 6.0 mi SSE 16.1 mph 23.0 mph 0.03 in   Overcast
5:12 PM 63.0 °F 63.0 °F 100% 29.80 in 1.8 mi SE 12.7 mph 19.6 mph N/A   Overcast
5:23 PM 63.0 °F 63.0 °F 100% 29.80 in 0.5 mi SE 12.7 mph 20.7 mph N/A Fog Fog
5:41 PM 64.0 °F 64.0 °F 100% 29.80 in 1.8 mi SSE 10.4 mph 20.7 mph N/A   Overcast
5:52 PM 63.0 °F 63.0 °F 100% 29.82 in 1.2 mi SSW 10.4 mph 24.2 mph 0.09 in Rain Heavy Rain
6:04 PM 64.0 °F 64.0 °F 100% 29.80 in 2.0 mi Variable 5.8 mph 16.1 mph 0.12 in Rain Light Rain
6:12 PM 64.0 °F 64.0 °F 100% 29.81 in 4.0 mi South 8.1 mph 18.4 mph 0.12 in Rain Light Rain
6:22 PM 63.0 °F 63.0 °F 100% 29.80 in 2.5 mi SSE 8.1 mph - 0.14 in Rain Rain
6:31 PM 63.0 °F 63.0 °F 100% 29.80 in 4.0 mi South 6.9 mph - 0.17 in Rain Heavy Rain
6:52 PM 63.0 °F 63.0 °F 100% 29.79 in 6.0 mi SSE 9.2 mph - 0.20 in Rain Light Rain
7:52 PM 63.0 °F 63.0 °F 100% 29.78 in 6.0 mi SSE 6.9 mph 20.7 mph 0.07 in Rain Light Rain
8:05 PM 63.0 °F 63.0 °F 100% 29.77 in 2.0 mi SSE 11.5 mph 19.6 mph 0.01 in Rain Light Rain
8:25 PM 63.0 °F 63.0 °F 100% 29.77 in 4.0 mi SE 8.1 mph 18.4 mph 0.02 in Rain Light Rain
8:52 PM 61.0 °F 61.0 °F 100% 29.79 in 3.0 mi South 9.2 mph 17.3 mph 0.02 in Rain Light Rain
9:00 PM 62.1 °F 62.1 °F 100% 29.79 in 2.5 mi South 10.4 mph 16.1 mph 0.01 in Rain Rain
9:35 PM 62.1 °F 62.1 °F 100% 29.77 in 3.0 mi SSE 6.9 mph - 0.15 in Rain Rain
9:52 PM 62.1 °F 62.1 °F 100% 29.77 in 5.0 mi SSE 6.9 mph - 0.19 in Rain Rain
10:52 PM 62.1 °F 62.1 °F 100% 29.73 in 2.5 mi South 8.1 mph - 0.09 in Rain Light Rain
11:06 PM 61.0 °F 61.0 °F 100% 29.73 in 1.2 mi Variable 4.6 mph - 0.01 in Rain Rain
11:30 PM 61.0 °F 61.0 °F 100% 29.73 in 3.0 mi SW 4.6 mph - 0.02 in Rain Light Rain
11:52 PM 61.0 °F 61.0 °F 100% 29.72 in 10.0 mi SSW 3.5 mph - 0.03 in   Overcast